GW4692 Weather Reports


Display with metric or nautical units.
time (UTC)temp
F
wind
direction
speed
MPH
gust
MPH
rain 1hr
in
rain 24hr
in
rain mn
in
humidity
%
barometer
mb
20260503034520 49 339 0.0 2.0 0.00 0.00 0.00 77 1011.1
20260503033021 49 339 1.0 2.0 0.00 0.00 0.00 77 1011.1
20260503031516 50 339 2.0 3.0 0.00 0.00 0.00 76 1011.0
20260503030014 50 339 0.0 2.0 0.00 0.00 0.00 76 1011.1
20260503024523 50 339 0.0 1.0 0.00 0.00 0.00 76 1011.1
20260503023011 50 339 0.0 1.0 0.00 0.00 0.00 76 1011.3
20260503021530 50 339 0.0 3.0 0.00 0.00 0.00 77 1011.3
20260503020010 48 5 1.0 2.0 0.00 0.00 0.00 77 1011.3
20260503014507 48 11 0.0 0.0 0.00 0.00 0.00 77 1011.3
20260503013007 49 11 0.0 1.0 0.00 0.00 0.00 77 1011.3
20260503011605 50 11 0.0 0.0 0.00 0.00 0.00 76 1011.5
20260503011501 50 11 0.0 0.0 0.00 0.00 0.00 76 1011.5
20260503010104 51 10 0.0 2.0 0.00 0.00 0.00 76 1011.5
20260503004607 51 9 2.0 3.0 0.00 0.00 0.00 75 1011.7
20260503003109 52 10 0.0 1.0 0.00 0.00 0.00 74 1011.8
20260503001608 52 10 0.0 1.0 0.00 0.00 0.00 74 1011.9
20260503000051 52 10 2.0 3.0 0.00 0.00 0.00 74 1012.1
20260502234548 51 14 1.0 2.0 0.00 0.00 0.00 75 1012.3
20260502233047 52 14 0.0 1.0 0.00 0.00 0.00 75 1012.3
20260502231543 52 15 0.0 2.0 0.00 0.00 0.00 74 1012.4
20260502230039 53 15 0.0 2.0 0.00 0.00 0.00 72 1012.5
20260502224537 54 32 1.0 2.0 0.00 0.00 0.00 72 1012.5
20260502223036 54 32 0.0 1.0 0.00 0.00 0.00 72 1012.5
20260502221532 53 23 0.0 2.0 0.00 0.00 0.00 72 1012.5
20260502220034 54 23 0.0 1.0 0.00 0.00 0.00 72 1012.5
20260502214528 54 23 0.0 0.0 0.00 0.00 0.00 72 1012.5
20260502213027 54 23 0.0 4.0 0.00 0.00 0.00 71 1012.5
20260502211527 56 26 2.0 3.0 0.00 0.00 0.00 69 1012.5
20260502210026 56 11 0.0 3.0 0.00 0.00 0.00 69 1012.6
20260502204533 56 5 0.0 2.0 0.00 0.00 0.00 68 1012.6
20260502203030 57 25 0.0 0.0 0.00 0.00 0.00 66 1012.6
20260502201526 57 25 0.0 0.0 0.00 0.00 0.00 64 1012.5
20260502200043 58 25 0.0 1.0 0.00 0.00 0.00 63 1012.4
20260502194524 60 47 1.0 3.0 0.00 0.00 0.00 58 1012.3
20260502193024 61 47 1.0 3.0 0.00 0.00 0.00 54 1012.3
20260502191524 63 66 2.0 3.0 0.00 0.00 0.00 52 1012.2
20260502190023 64 66 1.0 2.0 0.00 0.00 0.00 47 1012.3
20260502184524 65 209 0.0 0.0 0.00 0.00 0.00 45 1012.1
20260502183021 66 209 0.0 1.0 0.00 0.00 0.00 41 1012.1
20260502181526 66 209 0.0 1.0 0.00 0.00 0.00 44 1012.0
20260502163019 71 229 2.0 7.0 0.00 0.00 0.00 39 1012.1
20260502161513 71 232 3.0 8.0 0.00 0.00 0.00 38 1012.3
20260502151507 72 273 0.0 7.0 0.00 0.00 0.00 39 1012.8
20260502123040 69 249 4.0 9.0 0.00 0.00 0.00 38 1015.0
20260502121538 69 203 1.0 8.0 0.00 0.00 0.00 37 1015.3
20260502114538 69 290 3.0 7.0 0.00 0.00 0.00 40 1015.6
20260502113036 68 163 2.0 8.0 0.00 0.00 0.00 41 1016.0
20260502111530 68 170 3.0 6.0 0.00 0.00 0.00 40 1016.2
20260502110028 67 275 3.0 6.0 0.00 0.00 0.00 44 1016.4
20260502104526 68 201 4.0 10.0 0.00 0.00 0.00 43 1016.6
20260502103052 66 126 2.0 5.0 0.00 0.00 0.00 42 1016.8
20260502101521 67 178 4.0 9.0 0.00 0.00 0.00 42 1017.1
20260502091508 63 251 1.0 6.0 0.00 0.00 0.00 45 1017.9
20260502080104 63 263 1.0 3.0 0.00 0.00 0.00 51 1018.3
20260502070048 61 51 0.0 1.0 0.00 0.00 0.00 57 1018.5
20260502064544 60 22 0.0 0.0 0.00 0.00 0.00 63 1018.6
20260502063050 57 18 0.0 1.0 0.00 0.00 0.00 69 1018.6
20260502061536 55 18 0.0 3.0 0.00 0.00 0.00 72 1018.5
20260502060033 54 23 2.0 6.0 0.00 0.00 0.00 74 1018.4
20260502054538 52 30 1.0 6.0 0.00 0.00 0.00 76 1018.5
20260502053022 50 20 4.0 7.0 0.00 0.00 0.00 77 1018.4
20260502051521 49 21 4.0 6.0 0.00 0.00 0.00 77 1018.4
20260502050025 47 22 2.0 4.0 0.00 0.00 0.00 78 1018.4
20260502044519 46 25 2.0 3.0 0.00 0.00 0.00 77 1018.4
20260502043019 45 29 2.0 3.0 0.00 0.00 0.00 74 1018.3
20260502041518 45 20 1.0 4.0 0.00 0.00 0.00 74 1018.3
20260502040016 44 9 0.0 2.0 0.00 0.00 0.00 73 1018.3